Location: Hylvaty SDH
(49.9612°N, 16.4057°E)
Time: 01:12:10
(UTC+01:00)

Transit 4A - Pass Details

Date: 16 August 2020
Orbit: 864 x 981 km, 66.8° (Epoch: 15 January)

Event Time Altitude Azimuth Distance (km) Brightness Sun altitude
Rises 15:34:47 0° 322° (NW) 3,622 11.0 41.6°
Reaches altitude 10° 15:37:35 10° 331° (NNW) 2,691 10.4 41.2°
Maximum altitude 15:43:15 34° 36° (NE) 1,554 9.0 40.5°
Drops below altitude 10° 15:49:00 10° 99° (E) 2,728 10.1 39.7°
Sets 15:51:51 0° 109° (ESE) 3,678 10.7 39.3°
